QPF
0.00 0.00 0.00 0.00 0.00 0.00 0.00 0.00 0.00 0.00 0.00 0.00 0.00 0.00 0.00 0.00 0.00 0.01 0.00 0.01 0.01 0.01
0.00 0.00 0.00 0.00 0.00 0.00 0.00 0.00 0.00 0.00 0.00 0.00 0.00 0.00 0.00 0.00 0.00 0.00 0.00 0.00 0.00 0.01
0.00 0.00 0.00 0.00 0.00 0.00 0.00 0.00 0.00 0.00 0.00 0.00 0.00 0.00 0.00 0.00 0.00 0.00 0.00 0.00 0.00 0.00
0.00 0.00 0.00 0.00 0.00 0.00 0.00 0.00 0.00 0.00 0.00 0.00 0.00 0.00 0.00 0.00 0.00 0.00 0.00 0.00 0.00 0.00
0.00 0.00 0.00 0.00 0.00 0.00 0.00 0.00 0.00 0.00 0.00 0.00 0.00 0.00 0.00 0.00 0.00 0.00 0.00 0.00 0.01 0.01
0.00 0.00 0.00 0.00 0.00 0.00 0.00 0.00 0.00 0.00 0.00 0.00 0.00 0.00 0.00 0.00 0.00 0.00 0.00 0.00 0.01 0.01
0.00 0.00 0.00 0.00 0.00 0.00 0.00 0.00 0.00 0.00 0.00 0.00 0.00 0.00 0.00 0.00 0.00 0.00 0.00 0.00 0.01 0.01
0.00 0.00 0.00 0.00 0.00 0.00 0.00 0.00 0.00 0.00 0.00 0.00 0.00 0.00 0.00 0.00 0.00 0.00 0.00 0.00 0.00 0.01
0.00 0.00 0.00 0.00 0.00 0.00 0.00 0.00 0.00 0.00 0.00 0.00 0.00 0.00 0.00 0.00 0.00 0.00 0.00 0.00 0.00 0.00
0.00 0.00 0.00 0.00 0.00 0.00 0.00 0.00 0.00 0.00 0.00 0.00 0.00 0.00 0.00 0.00 0.00 0.00 0.00 0.00 0.00 0.00
0.00 0.00 0.00 0.00 0.00 0.00 0.00 0.00 0.00 0.00 0.00 0.00 0.00 0.00 0.00 0.00 0.00 0.00 0.00 0.00 0.00 0.00
0.00 0.00 0.00 0.00 0.00 0.00 0.00 0.00 0.00 0.00 0.00 0.00 0.00 0.00 0.00 0.00 0.00 0.00 0.00 0.00 0.00 0.00
0.00 0.00 0.00 0.00 0.00 0.00 0.00 0.00 0.00 0.00 0.00 0.00 0.00 0.00 0.00 0.00 0.00 0.00 0.00 0.00 0.00 0.00
0.00 0.00 0.00 0.00 0.00 0.00 0.00 0.00 0.00 0.00 0.00 0.00 0.00 0.00 0.00 0.00 0.00 0.00 0.00 0.00 0.00 0.00
MSLP
1027.79 1027.71 1027.54 1027.45 1027.43 1027.38 1027.18 1026.87 1026.15 1025.45 1024.78 1024.04 1023.45 1022.63 1021.76 1020.83 1020.00 1019.18 1018.39 1017.45 1016.70 1015.74
1028.04 1027.91 1027.77 1027.61 1027.47 1027.59 1027.47 1026.96 1026.48 1025.74 1025.04 1024.47 1023.80 1023.02 1022.17 1021.27 1020.40 1019.63 1018.88 1017.98 1017.00 1016.07
1028.27 1028.11 1027.87 1027.64 1027.64 1027.72 1027.64 1027.28 1026.62 1026.02 1025.38 1024.98 1024.13 1023.42 1022.54 1021.74 1020.90 1020.04 1019.27 1018.38 1017.58 1016.72
1028.51 1028.31 1028.08 1027.93 1027.75 1027.69 1027.63 1027.39 1026.94 1026.26 1025.82 1025.47 1024.66 1023.88 1023.08 1022.30 1021.49 1020.61 1019.97 1019.17 1018.36 1017.37
1028.78 1028.63 1028.40 1028.18 1027.89 1027.62 1027.68 1027.44 1027.11 1026.78 1026.31 1025.85 1025.22 1024.48 1023.69 1022.89 1022.12 1021.34 1020.68 1020.05 1019.09 1018.15
1029.02 1028.86 1028.66 1028.42 1028.18 1027.81 1027.67 1027.64 1027.42 1027.24 1026.84 1026.37 1025.79 1024.92 1024.16 1023.50 1022.84 1022.15 1021.39 1020.73 1019.98 1018.89
1029.21 1029.05 1028.88 1028.69 1028.44 1028.20 1027.95 1027.97 1027.79 1027.83 1027.46 1026.90 1026.38 1025.39 1024.58 1023.94 1023.44 1022.96 1022.12 1021.37 1020.70 1019.71
1029.34 1029.23 1029.13 1028.96 1028.80 1028.53 1028.42 1028.37 1028.27 1028.36 1027.96 1027.37 1026.60 1025.88 1025.01 1024.40 1023.94 1023.53 1022.85 1021.73 1021.22 1020.42
1029.54 1029.48 1029.41 1029.25 1029.11 1028.96 1028.89 1028.89 1028.84 1028.78 1028.54 1027.96 1027.27 1026.33 1025.49 1024.83 1024.56 1024.09 1023.57 1022.62 1021.68 1020.97
1029.80 1029.77 1029.71 1029.60 1029.47 1029.34 1029.28 1029.33 1029.32 1029.32 1029.16 1028.58 1027.99 1027.15 1026.39 1025.86 1025.48 1024.95 1024.41 1023.76 1022.80 1021.86
1030.01 1030.05 1030.01 1029.92 1029.86 1029.74 1029.70 1029.80 1029.80 1029.91 1029.79 1029.44 1028.76 1028.02 1027.38 1026.85 1026.45 1025.94 1025.31 1024.70 1024.05 1023.04
1030.22 1030.33 1030.38 1030.42 1030.36 1030.25 1030.27 1030.31 1030.32 1030.50 1030.51 1030.23 1029.82 1028.93 1028.23 1027.76 1027.34 1026.82 1026.31 1025.66 1024.93 1024.28
1030.36 1030.51 1030.68 1030.72 1030.76 1030.79 1030.78 1030.87 1030.94 1031.08 1031.08 1030.95 1030.74 1029.80 1029.06 1028.63 1028.37 1027.89 1027.37 1026.72 1025.98 1025.16
1030.52 1030.69 1030.98 1031.23 1031.33 1031.38 1031.50 1031.64 1031.76 1031.83 1031.91 1031.79 1031.38 1030.95 1029.91 1029.30 1029.04 1028.82 1028.49 1027.90 1027.19 1026.53
Thickness
5431 5418 5406 5392 5377 5361 5345 5330 5322 5318 5314 5312 5310 5310 5312 5314 5316 5318 5321 5327 5332 5341
5428 5416 5402 5390 5376 5360 5344 5329 5321 5317 5314 5312 5312 5312 5314 5317 5320 5322 5325 5331 5340 5349
5425 5413 5401 5389 5376 5361 5345 5331 5322 5317 5314 5312 5313 5314 5317 5320 5323 5326 5330 5337 5343 5351
5423 5412 5400 5389 5377 5363 5349 5334 5323 5319 5315 5312 5313 5315 5318 5322 5325 5329 5332 5337 5344 5354
5421 5409 5398 5388 5377 5366 5352 5338 5325 5318 5315 5313 5312 5314 5317 5322 5326 5329 5332 5336 5344 5354
5419 5408 5397 5388 5377 5368 5356 5341 5328 5318 5315 5313 5313 5315 5318 5322 5326 5329 5334 5338 5343 5353
5418 5408 5398 5389 5379 5369 5359 5345 5332 5319 5315 5313 5312 5316 5320 5323 5326 5328 5334 5340 5345 5354
5418 5409 5399 5390 5380 5371 5361 5348 5335 5322 5315 5314 5315 5316 5320 5324 5327 5330 5335 5344 5348 5355
5418 5408 5399 5391 5382 5373 5363 5351 5338 5327 5317 5314 5315 5317 5320 5323 5326 5331 5335 5343 5352 5359
5418 5409 5400 5392 5383 5375 5365 5355 5343 5331 5321 5316 5314 5316 5318 5319 5322 5328 5333 5339 5349 5358
5418 5409 5401 5393 5385 5377 5368 5358 5348 5336 5326 5318 5314 5314 5317 5318 5320 5324 5330 5336 5343 5354
5418 5410 5402 5394 5386 5379 5370 5360 5351 5340 5330 5322 5315 5313 5315 5318 5319 5323 5326 5332 5339 5347
5420 5413 5404 5397 5389 5381 5373 5363 5354 5344 5334 5326 5320 5316 5314 5315 5316 5318 5323 5329 5337 5343
5423 5415 5407 5399 5391 5382 5373 5364 5355 5346 5337 5329 5324 5320 5318 5316 5316 5317 5318 5324 5330 5338